Regional Weather Roundup
Issued by NWS

Home | Current Version | Previous Version | Text Only | Print | Product List | Glossary Off
Versions: 1 2 3 4 5 6 7 8 9 10 11 12 13 14 15 16 17 18 19 20 21 22 23 24 25 26 27 28 29 30 31 32 33 34 35 36 37 38 39 40 41 42 43 44 45 46 47 48 49 50

000
ASUS43 KTOP 191659
RWRKS

WEATHER ROUNDUP FOR KANSAS
NATIONAL WEATHER SERVICE GOODLAND KS
1100 AM CST FRI DEC 19 2014

NOTE:  "FAIR" INDICATES FEW OR NO CLOUDS BELOW 12,000 FEET WITH NO
SIGNIFICANT WEATHER AND/OR OBSTRUCTIONS TO VISIBILITY.

KSZ001>006-013>018-027>032-041>047-191800-
NORTHWEST KANSAS

CITY           SKY/WX    TMP DP  RH WIND       PRES   REMARKS
GOODLAND       PTSUNNY   39  29  67 W12       30.14S WCI  32
HAYS           CLOUDY    37  28  70 S8        30.19F
HILL CITY      PTSUNNY   31  28  89 VRB3      30.18S
RUSSELL        CLOUDY    34  32  92 S8        30.20R FOG
$$

KSZ061>065-074>080-084>089-191800-
SOUTHWEST KANSAS

CITY           SKY/WX    TMP DP  RH WIND       PRES   REMARKS
DODGE CITY     CLOUDY    36  33  89 SW10      30.19R WCI  28
ELKHART          N/A    N/A N/A N/A MISG        N/A
GARDEN CITY    CLOUDY    37  32  82 SW8       30.17S
GREAT BEND     CLOUDY    34  28  80 S10       30.22S WCI  26
LIBERAL        CLOUDY    39  32  75 S5        30.20S
$$

KSZ066>073-081>083-090>101-191800-
SOUTHEAST KANSAS

CITY           SKY/WX    TMP DP  RH WIND       PRES   REMARKS
CHANUTE        CLOUDY    35  33  92 N5        30.27S FOG
COFFEYVILLE    CLOUDY    37  35  92 N3        30.27S FOG
HUTCHINSON     CLOUDY    33  30  88 S8        30.26R FOG
MEDICINE LODGE   N/A     34  33  96 S6        30.24F
NEWTON         CLOUDY    30  27  86 SE6       30.26F
PARSONS        CLOUDY    37  34  89 CALM      30.28S
WICHITA INTL   CLOUDY    33  29  85 CALM      30.25F FOG
WICHITA JABRA  CLOUDY    32  29  88 CALM      30.26S
WINFIELD       CLOUDY    34  31  88 CALM      30.28S
$$

KSZ007>012-019>026-033>040-048>060-102>105-191800-
NORTHEAST KANSAS

CITY           SKY/WX    TMP DP  RH WIND       PRES   REMARKS
CONCORDIA      CLOUDY    32  29  88 S13       30.23S FOG     WCI  22
EMPORIA        CLOUDY    31  28  89 CALM      30.27S
LAWRENCE       CLOUDY    31  29  92 S6        30.31R FOG
MANHATTAN      CLOUDY    31  30  96 S6        30.28S FOG
OLATHE IND     CLOUDY    31  30  96 CALM      30.29S
OLATHE EXE     CLOUDY    31  30  96 CALM      30.28S FOG
SALINA         CLOUDY    32  28  85 S7        30.26S
TOPEKA BILLARD CLOUDY    32  29  88 S5        30.31R FOG
TOPEKA FORBES  CLOUDY    32  29  88 S5        30.29R FOG
$$


USA.gov is the U.S. government's official web portal to all federal, state and local government web resources and services.